Regional Weather Roundup
Issued by NWS

Home | Current Version | Previous Version | Text Only | Print | Product List | Glossary On
Versions: 1 2 3 4 5 6 7 8 9 10 11 12 13 14 15 16 17 18 19 20 21 22 23 24 25 26 27 28 29 30 31 32 33 34 35 36 37 38 39 40 41 42 43 44 45 46 47 48 49 50
000
ASUS45 KTFX 030110
RWRMT
MONTANA REGIONAL WEATHER ROUNDUP
NATIONAL WEATHER SERVICE GREAT FALLS MT
700 PM MDT SUN AUG 02 2015

NOTE: "FAIR" INDICATES FEW OR NO CLOUDS BELOW 12000 FEET WITH NO
SIGNIFICANT WEATHER AND/OR OBSTRUCTIONS TO VISIBILITY.

MTZ001>007-043-030200-
WEST OF THE DIVIDE

CITY           SKY/WX    TMP DP  RH WIND       PRES   REMARKS
KALISPELL      CLEAR     91  29  11 S10       29.86F
MISSOULA       SUNNY     94  23   8 VRB3      29.88F
BUTTE          SUNNY     86  28  12 SE9       30.05F
MULLAN PASS    MOSUNNY   81  27  14 VRB6      30.12F
DEER LODGE       N/A     88  30  12 NW3       30.03F
EUREKA           N/A     97  28   9 SW9       29.83F HX  91
HAMILTON         N/A     88  41  19 N6        29.89F
LIBBY            N/A     93  25   8 NW5       29.84S
PLAINS           N/A    102  38  11 CALM      29.83F HX  96
RONAN            N/A     93  35  13 NE2       29.94F
THOMPSON FALLS   N/A     98  22   6 W9        29.86F HX  91
$$

MTZ008-052>055-030200-
SOUTHWEST MONTANA

CITY           SKY/WX    TMP DP  RH WIND       PRES   REMARKS
BOZEMAN        MOSUNNY   86  39  19 CALM      29.99F
DILLON         MOSUNNY   89  26  10 N8        30.00F
W YELLOWSTONE  SUNNY     82  28  14 W5        30.13S
THREE FORKS      N/A     88  25  10 S1        29.97F
TWIN BRIDGES     N/A     90  34  13 W6        29.99F
$$

MTZ009-010-012-014-046-048-049-054-030200-
EAST SLOPES AND CENTRAL MONTANA

CITY           SKY/WX    TMP DP  RH WIND       PRES   REMARKS
CUT BANK       SUNNY     84  42  22 SE10      29.97F
GREAT FALLS    FAIR      86  33  15 E9        29.95F
MALMSTROM AFB  FAIR      86  38  18 E13       29.95F
HELENA         SUNNY     91  39  16 E6        29.93F
CONRAD           N/A     85  47  26 NE3       29.99F
$$

MTZ011-013-016-021-045-047-050-051-030200-
NORTH CENTRAL MONTANA

CITY           SKY/WX    TMP DP  RH WIND       PRES   REMARKS
HAVRE          SUNNY     81  52  36 E17       29.95S
LEWISTOWN        N/A     83  47  28 E10       30.03F
CHINOOK          N/A     81  54  39 E7        29.96S
FORT BENTON      N/A     86  46  25 E3        29.93F
$$

MTZ017>020-022>027-061-062-030200-
NORTHEAST MONTANA

CITY           SKY/WX    TMP DP  RH WIND       PRES   REMARKS
GLASGOW        SUNNY     82  47  29 N7        29.97F
JORDAN           N/A     83  48  29 NE5       29.98F
SIDNEY         SUNNY    N/A N/A N/A N10       29.96S
WOLF POINT     SUNNY     83  45  26 N12       29.97F
MALTA            N/A     84  52  33 CALM      29.95F
PLENTYWOOD       N/A     73  48  40 N12       30.00S
POPLAR           N/A     79  46  31 N6        29.98S
SCOBEY           N/A     74  45  35 N8        30.01S
$$

MTZ028>42-056>058-030200-
SOUTHCENTRAL AND SOUTHEAST MONTANA

CITY           SKY/WX    TMP DP  RH WIND       PRES   REMARKS
BAKER          SUNNY     81  48  31 NE14      30.00F
BILLINGS       PTSUNNY   85  41  21 NE10      29.99F
LIVINGSTON     SUNNY     88  38  17 E10       29.99F
MILES CITY     SUNNY     84  49  29 E13       29.96F
FORSYTH          N/A     84  45  24 E9        29.95F
LAUREL           N/A     86  43  22 NE5       29.98F
ROUNDUP          N/A     86  40  19 E9        29.91F
$$

REGIONAL REPORTS...DAKOTAS

CITY           SKY/WX    TMP DP  RH WIND       PRES   REMARKS
WILLISTON      SUNNY     79  45  29 N9        29.97S
MINOT          SUNNY     75  47  36 NW15      29.92S
DICKINSON      SUNNY     77  47  34 N10       29.97S
BEACH          FAIR      77  48  36 N6        30.01R
CROSBY         FAIR      72  48  43 N10       29.98S
BISMARCK       SUNNY     76  51  41 N13       29.94R
GRAND FORKS    PTCLDY    74  48  39 NW15      29.81S
FARGO          CLEAR     74  50  42 NW10      29.84S
BUFFALO SD       N/A     81  48  31 E10       29.93S
RAPID CITY     SUNNY     80  57  45 NE8       29.97S
$$

REGIONAL REPORTS...WYOMING/IDAHO/WASHINGTON

CITY           SKY/WX    TMP DP  RH WIND       PRES   REMARKS
GILLETTE       SUNNY     85  46  25 NE15      30.01S
SHERIDAN       SUNNY     87  42  20 W10       29.99F
BUFFALO WY     SUNNY     83  41  22 NW10      30.08S
CODY           SUNNY     79  45  29 N12       30.06S
YELLOWSTONE LA   N/A     75  35  23 CALM      30.25F
IDAHO FALLS    MOSUNNY   91  40  16 NW5       29.95F
SALMON         MOSUNNY   93  45  18 CALM      29.84F
BOISE          CLOUDY    97  44  16 W6        29.77F HX  93
SPOKANE        MOSUNNY   97  16   5 W8        29.83F HX  90
$$

REGIONAL REPORTS...ALBERTA

CITY           SKY/WX    TMP DP  RH WIND       PRES   REMARKS
EDMONTON       MOSUNNY   75  54  46 S10       29.93F
CALGARY        PTSUNNY   79  50  36 SE16G26   29.96F
LETHBRIDGE     PTSUNNY   82  54  36 E9        29.92F
MEDICINE HAT   MOSUNNY   84  48  28 E12G17    29.94S
WATERTON GATE    N/A     81  52  36 NE6         N/A
CARDSTON         N/A     82  50  32 SE6         N/A
ONEFOUR          N/A     81  46  30 E10         N/A
$$

REGIONAL REPORTS...SASKATCHEWAN

CITY           SKY/WX    TMP DP  RH WIND       PRES   REMARKS
SWIFT CURRENT  PTSUNNY   73  50  43 N3        30.02F
REGINA         MOSUNNY   73  50  43 NW10      29.99S
SASKATOON      MOSUNNY   75  52  43 N7        29.98F
CYPRESS HILLS    N/A     70  50  49 NE7         N/A
VAL MARIE        N/A     75  52  43 E7          N/A
ROCKGLEN         N/A     70  50  49 NW6         N/A
$$


USA.gov is the U.S. government's official web portal to all federal, state and local government web resources and services.